START_TIME,STEP,MOV.,M15,t_acc.,M20,t_acc.
1979-03-01 15:00:33.360 ,2,1,0.,24.0,0.,24.0
1979-03-01 15:00:57.360 ,1,1,0.,24.0,0.,24.0
1979-03-01 15:01:21.360 ,0,1,0.,24.0,0.,24.0
1979-03-01 15:01:45.360 ,0,1,0.,24.0,0.,24.0
1979-03-01 15:02:09.360 ,1,1,0.,24.0,0.,24.0
1979-03-01 15:02:33.360 ,2,1,0.,24.0,0.,24.0
1979-03-01 15:02:57.360 ,0,0,,0,,0
1979-03-01 15:03:16.560 ,3,1,0.,24.0,0.,24.0
1979-03-01 15:03:21.360 ,4,1,0.,24.0,0.,24.0
1979-03-01 15:03:45.360 ,5,1,0.,24.0,0.,24.0
1979-03-01 15:04:09.360 ,6,1,0.,24.0,0.,24.0
1979-03-01 15:04:33.360 ,7,1,0.,24.0,0.,24.0
1979-03-01 15:04:57.360 ,7,1,0.,24.0,0.,24.0
1979-03-01 15:05:21.360 ,6,1,0.,24.0,0.,24.0
1979-03-01 15:05:45.360 ,5,1,0.,24.0,0.,24.0
1979-03-01 15:06:09.360 ,4,1,0.,24.0,0.,24.0
1979-03-01 15:06:33.360 ,3,1,0.,24.0,0.,24.0
1979-03-01 15:06:57.360 ,2,1,0.,24.0,0.,24.0
1979-03-01 15:07:21.360 ,1,1,0.,24.0,0.,24.0
1979-03-01 15:07:45.360 ,0,1,0.,24.0,0.,24.0
1979-03-01 15:08:09.360 ,0,1,0.,24.0,0.,24.0
1979-03-01 15:08:33.360 ,1,1,0.,24.0,0.,24.0
1979-03-01 15:08:57.360 ,2,1,0.,24.0,0.,24.0
1979-03-01 15:09:21.360 ,3,1,0.,24.0,0.,24.0
1979-03-01 15:09:45.360 ,4,1,0.,24.0,0.,24.0
1979-03-01 15:10:09.360 ,5,1,0.,24.0,0.,24.0
1979-03-01 15:10:33.360 ,6,1,0.,24.0,0.,24.0
1979-03-01 15:10:57.360 ,7,1,0.,24.0,0.,24.0
1979-03-01 15:11:21.360 ,7,1,0.,24.0,0.,24.0
1979-03-01 15:11:45.360 ,6,1,0.,24.0,0.,24.0
1979-03-01 15:12:09.360 ,5,1,0.,24.0,0.,24.0
1979-03-01 15:12:33.360 ,4,1,0.,24.0,0.,24.0
1979-03-01 15:12:57.360 ,3,1,0.,24.0,0.,24.0
1979-03-01 15:13:21.360 ,2,1,0.,24.0,0.,24.0
1979-03-01 15:13:45.360 ,1,1,0.,24.0,0.,24.0
1979-03-01 15:14:09.360 ,0,1,0.,24.0,0.,24.0
1979-03-01 15:14:33.360 ,0,1,0.,24.0,0.,24.0
1979-03-01 15:14:57.360 ,1,1,0.,24.0,0.,24.0
1979-03-01 15:15:21.360 ,2,1,0.,24.0,0.,24.0
1979-03-01 15:15:45.360 ,3,1,0.,24.0,0.,24.0
1979-03-01 15:16:09.360 ,4,1,0.,24.0,0.,24.0
1979-03-01 15:16:33.360 ,5,1,0.,24.0,0.,24.0
1979-03-01 15:16:57.360 ,6,1,0.,24.0,0.,24.0
1979-03-01 15:17:21.360 ,7,1,0.,24.0,0.,24.0
1979-03-01 15:17:45.360 ,7,1,0.,24.0,0.,24.0
1979-03-01 15:18:09.360 ,6,1,0.,24.0,0.,24.0
1979-03-01 15:18:33.360 ,5,1,0.,24.0,0.,24.0
1979-03-01 15:18:57.360 ,4,1,0.,24.0,0.,24.0
1979-03-01 15:19:21.360 ,3,1,0.,24.0,0.,24.0
1979-03-01 15:19:45.360 ,2,1,0.,24.0,0.,24.0
1979-03-01 15:20:09.360 ,1,1,0.,24.0,0.,24.0
1979-03-01 15:20:33.360 ,0,1,0.,24.0,0.,24.0
1979-03-01 15:20:57.360 ,0,1,0.,24.0,0.,24.0
1979-03-01 15:21:21.360 ,1,1,0.,24.0,0.,24.0
1979-03-01 15:21:45.360 ,2,1,0.,24.0,0.,24.0
1979-03-01 15:22:09.360 ,3,1,0.,24.0,0.,24.0
1979-03-01 15:22:33.360 ,4,1,0.,24.0,0.,24.0
1979-03-01 15:22:57.360 ,5,1,0.,24.0,0.,24.0
1979-03-01 15:23:21.360 ,6,1,0.,24.0,0.,24.0
1979-03-01 15:23:45.360 ,7,1,0.,24.0,0.,24.0
1979-03-01 15:24:09.360 ,7,1,0.,24.0,0.,24.0
1979-03-01 15:24:33.360 ,6,1,0.,24.0,0.,24.0
1979-03-01 15:24:57.360 ,5,1,0.,24.0,0.,24.0
1979-03-01 15:25:21.360 ,4,1,0.,24.0,0.,24.0
1979-03-01 15:25:45.360 ,3,1,0.,24.0,0.,24.0
1979-03-01 15:26:09.360 ,2,1,0.,24.0,0.,24.0
1979-03-01 15:26:33.360 ,1,1,0.,24.0,0.,24.0
1979-03-01 15:26:57.360 ,0,1,0.,24.0,0.,24.0
1979-03-01 15:27:21.360 ,0,1,0.,24.0,0.,24.0
1979-03-01 15:27:45.360 ,1,1,0.,24.0,0.,24.0
1979-03-01 15:28:09.360 ,2,1,0.,24.0,0.,24.0
1979-03-01 15:28:33.360 ,3,1,0.,24.0,0.,24.0
1979-03-01 15:28:57.360 ,4,1,0.,24.0,0.,24.0
1979-03-01 15:29:21.360 ,5,1,0.,24.0,0.,24.0
1979-03-01 15:29:45.360 ,6,1,0.,24.0,0.,24.0
1979-03-01 15:30:09.360 ,7,1,0.,24.0,0.,24.0
1979-03-01 15:30:33.360 ,7,1,0.,24.0,0.,24.0
1979-03-01 15:30:57.360 ,6,1,0.,24.0,0.,24.0
1979-03-01 15:31:21.360 ,0,0,,0,,0
1979-03-01 15:31:45.360 ,0,0,,0,,0
1979-03-01 15:32:11.160 ,0,0,0.,24.0,0.,24.0
1979-03-01 15:32:33.360 ,2,1,0.,24.0,0.,24.0
1979-03-01 15:32:57.360 ,1,1,0.,24.0,0.,24.0
1979-03-01 15:33:21.360 ,0,1,0.,24.0,0.,24.0
1979-03-01 15:33:45.360 ,0,1,0.,24.0,0.,24.0
1979-03-01 15:34:09.360 ,1,1,0.,24.0,0.,24.0
1979-03-01 15:34:33.360 ,2,1,0.,24.0,0.,24.0
1979-03-01 15:34:57.360 ,3,1,0.,24.0,0.,24.0
1979-03-01 15:35:21.360 ,4,1,0.,24.0,0.,24.0
1979-03-01 15:35:45.360 ,5,1,0.,24.0,0.,24.0
1979-03-01 15:36:09.360 ,6,1,0.,24.0,0.,24.0
1979-03-01 15:36:33.360 ,7,1,0.,24.0,0.,24.0
1979-03-01 15:36:57.360 ,7,1,0.,24.0,0.,24.0
1979-03-01 15:37:21.360 ,6,1,0.,24.0,0.,24.0
1979-03-01 15:37:45.360 ,5,1,0.,24.0,0.,24.0
1979-03-01 15:38:09.360 ,4,1,0.,24.0,0.,24.0
1979-03-01 15:38:33.360 ,3,1,0.,24.0,0.,24.0
1979-03-01 15:38:57.360 ,2,1,0.,24.0,0.,24.0
1979-03-01 15:39:21.360 ,1,1,0.,24.0,0.,24.0
1979-03-01 15:39:45.360 ,0,1,0.,24.0,0.,24.0
1979-03-01 15:40:09.360 ,0,1,0.,24.0,0.,24.0
1979-03-01 15:40:33.360 ,1,1,0.,24.0,0.,24.0
1979-03-01 15:40:57.360 ,2,1,0.,24.0,0.,24.0
1979-03-01 15:41:21.360 ,3,1,0.,24.0,0.,24.0
1979-03-01 15:41:45.360 ,4,1,0.,24.0,0.,24.0
1979-03-01 15:42:09.360 ,5,1,0.,24.0,0.,24.0
1979-03-01 15:42:33.360 ,6,1,0.,24.0,0.,24.0
1979-03-01 15:42:57.360 ,7,1,0.,24.0,0.,24.0
1979-03-01 15:43:21.360 ,7,1,0.,24.0,0.,24.0
1979-03-01 15:43:45.360 ,6,1,0.,24.0,0.,24.0
1979-03-01 15:44:09.360 ,5,1,0.,24.0,0.,24.0
1979-03-01 15:44:33.360 ,4,1,0.,24.0,0.,24.0
1979-03-01 15:44:57.360 ,3,1,0.,24.0,0.,24.0
1979-03-01 15:45:21.360 ,2,1,0.,24.0,0.,24.0
1979-03-01 15:45:45.360 ,1,1,0.,24.0,0.,24.0
1979-03-01 15:46:09.360 ,0,1,0.,24.0,0.,24.0
1979-03-01 15:46:33.360 ,0,1,0.,24.0,0.,24.0
1979-03-01 15:46:57.360 ,1,1,0.,24.0,0.,24.0
1979-03-01 15:47:21.360 ,2,1,0.,24.0,0.,24.0
1979-03-01 15:47:45.360 ,3,1,0.,24.0,0.,24.0
1979-03-01 15:48:09.360 ,4,1,0.,24.0,0.,24.0
1979-03-01 15:48:33.360 ,5,1,0.,24.0,0.,24.0
1979-03-01 15:48:57.360 ,6,1,0.,24.0,0.,24.0
1979-03-01 15:49:21.360 ,7,1,0.,24.0,0.,24.0
1979-03-01 15:49:45.360 ,7,1,0.,24.0,0.,24.0
1979-03-01 15:50:09.360 ,6,1,0.,24.0,0.,24.0
1979-03-01 15:50:33.360 ,5,1,0.,24.0,0.,24.0
1979-03-01 15:50:57.360 ,4,1,0.,24.0,0.,24.0
1979-03-01 15:51:21.360 ,3,1,0.,24.0,0.,24.0
1979-03-01 15:51:45.360 ,2,1,0.,24.0,0.,24.0
1979-03-01 15:52:09.360 ,1,1,1.,24.0,0.,24.0
1979-03-01 15:52:33.360 ,0,1,0.,24.0,0.,24.0
1979-03-01 15:52:57.360 ,0,1,0.,24.0,0.,24.0
1979-03-01 15:53:21.360 ,1,1,0.,24.0,0.,24.0
1979-03-01 15:53:45.360 ,2,1,0.,24.0,0.,24.0
1979-03-01 15:54:09.360 ,3,1,0.,24.0,0.,24.0
1979-03-01 15:54:33.360 ,4,1,0.,24.0,0.,24.0
1979-03-01 15:54:57.360 ,5,1,0.,24.0,0.,24.0
1979-03-01 15:55:21.360 ,6,1,0.,24.0,0.,24.0
1979-03-01 15:55:45.360 ,7,1,0.,24.0,0.,24.0
1979-03-01 15:56:09.360 ,7,1,0.,24.0,0.,24.0
1979-03-01 15:56:33.360 ,6,1,0.,24.0,0.,24.0
1979-03-01 15:56:57.360 ,5,1,0.,24.0,0.,24.0
1979-03-01 15:57:21.360 ,4,1,0.,24.0,0.,24.0
1979-03-01 15:57:45.360 ,3,1,0.,24.0,0.,24.0
1979-03-01 15:58:09.360 ,2,1,0.,24.0,0.,24.0
1979-03-01 15:58:33.360 ,1,1,0.,24.0,0.,24.0
1979-03-01 15:58:57.360 ,0,1,0.,24.0,0.,24.0
1979-03-01 15:59:21.360 ,0,1,0.,24.0,0.,24.0
1979-03-01 15:59:45.360 ,1,1,0.,24.0,0.,24.0
1979-03-01 16:00:09.360 ,2,1,0.,24.0,0.,24.0
1979-03-01 16:00:33.360 ,3,1,0.,24.0,0.,24.0
1979-03-01 16:00:57.360 ,4,1,0.,24.0,0.,24.0
1979-03-01 16:01:21.360 ,5,1,0.,24.0,0.,24.0
1979-03-01 16:01:45.360 ,6,1,0.,24.0,0.,24.0
1979-03-01 16:02:09.360 ,7,1,0.,24.0,0.,24.0
1979-03-01 16:02:33.360 ,7,1,0.,24.0,0.,24.0
1979-03-01 16:02:57.360 ,6,1,0.,24.0,0.,24.0
1979-03-01 16:03:21.360 ,5,1,0.,24.0,0.,24.0
1979-03-01 16:03:45.360 ,4,1,0.,24.0,0.,24.0
1979-03-01 16:04:09.360 ,3,1,0.,24.0,0.,24.0
1979-03-01 16:04:33.360 ,2,1,0.,24.0,0.,24.0
1979-03-01 16:04:57.360 ,1,1,0.,24.0,0.,24.0
1979-03-01 16:05:21.360 ,0,1,0.,24.0,0.,24.0
1979-03-01 16:05:45.360 ,0,1,0.,24.0,0.,24.0
1979-03-01 16:06:09.360 ,1,1,0.,24.0,0.,24.0
1979-03-01 16:06:33.360 ,2,1,0.,24.0,0.,24.0
1979-03-01 16:06:57.360 ,3,1,0.,24.0,0.,24.0
1979-03-01 16:07:21.360 ,4,1,0.,24.0,0.,24.0
1979-03-01 16:07:45.360 ,5,1,0.,24.0,0.,24.0
1979-03-01 16:08:09.360 ,6,1,0.,24.0,0.,24.0
1979-03-01 16:08:33.360 ,7,1,0.,24.0,0.,24.0
1979-03-01 16:08:57.360 ,7,1,0.,24.0,0.,24.0
1979-03-01 16:09:21.360 ,6,1,0.,24.0,0.,24.0
1979-03-01 16:09:45.360 ,5,1,0.,24.0,0.,24.0
1979-03-01 16:10:09.360 ,4,1,0.,24.0,0.,24.0
1979-03-01 16:10:33.360 ,3,1,0.,24.0,0.,24.0
1979-03-01 16:10:57.360 ,2,1,0.,24.0,0.,24.0
1979-03-01 16:11:21.360 ,1,1,0.,24.0,0.,24.0
1979-03-01 16:11:45.360 ,0,1,0.,24.0,0.,24.0
1979-03-01 16:12:09.360 ,0,1,0.,24.0,0.,24.0
1979-03-01 16:12:33.360 ,1,1,0.,24.0,0.,24.0
1979-03-01 16:12:57.360 ,2,1,0.,24.0,0.,24.0
1979-03-01 16:13:21.360 ,3,1,0.,24.0,0.,24.0
1979-03-01 16:13:45.360 ,4,1,0.,24.0,0.,24.0
1979-03-01 16:14:09.360 ,5,1,0.,24.0,0.,24.0
1979-03-01 16:14:33.360 ,6,1,0.,24.0,0.,24.0
1979-03-01 16:14:57.360 ,0,0,0.,24.0,0.,24.0
1979-03-01 16:15:24.960 ,0,0,0.,24.0,0.,24.0
1979-03-01 16:15:45.360 ,6,1,0.,24.0,0.,24.0
1979-03-01 16:16:09.360 ,5,1,0.,24.0,0.,24.0
1979-03-01 16:16:33.360 ,4,1,0.,24.0,0.,24.0
1979-03-01 16:16:57.360 ,3,1,0.,24.0,0.,24.0
1979-03-01 16:17:21.360 ,2,1,0.,24.0,0.,24.0
1979-03-01 16:17:45.360 ,1,1,0.,24.0,0.,24.0
1979-03-01 16:18:09.360 ,0,1,0.,24.0,0.,24.0
1979-03-01 16:18:33.360 ,0,1,0.,24.0,0.,24.0
1979-03-01 16:18:57.360 ,1,1,0.,24.0,0.,24.0
1979-03-01 16:19:21.360 ,2,1,0.,24.0,0.,24.0
1979-03-01 16:19:45.360 ,3,1,0.,24.0,0.,24.0
1979-03-01 16:20:09.360 ,4,1,0.,24.0,0.,24.0
1979-03-01 16:20:33.360 ,5,1,0.,24.0,0.,24.0
1979-03-01 16:20:57.360 ,6,1,0.,24.0,0.,24.0
1979-03-01 16:21:21.360 ,7,1,0.,24.0,0.,24.0
1979-03-01 16:21:45.360 ,7,1,0.,24.0,0.,24.0
1979-03-01 16:22:09.360 ,6,1,0.,24.0,0.,24.0
1979-03-01 16:22:33.360 ,5,1,0.,24.0,0.,24.0
1979-03-01 16:22:57.360 ,4,1,0.,24.0,0.,24.0
1979-03-01 16:23:21.360 ,3,1,0.,24.0,0.,24.0
1979-03-01 16:23:45.360 ,2,1,0.,24.0,0.,24.0
1979-03-01 16:24:09.360 ,1,1,0.,24.0,0.,24.0
1979-03-01 16:24:33.360 ,0,1,0.,24.0,0.,24.0
1979-03-01 16:24:57.360 ,0,1,0.,24.0,0.,24.0
1979-03-01 16:25:21.360 ,1,1,0.,24.0,0.,24.0
1979-03-01 16:25:45.360 ,2,1,0.,24.0,0.,24.0
1979-03-01 16:26:09.360 ,3,1,0.,24.0,0.,24.0
1979-03-01 16:26:33.360 ,4,1,0.,24.0,0.,24.0
1979-03-01 16:26:57.360 ,5,1,0.,24.0,0.,24.0
1979-03-01 16:27:21.360 ,6,1,0.,24.0,0.,24.0
1979-03-01 16:27:45.360 ,7,1,0.,24.0,0.,24.0
1979-03-01 16:28:09.360 ,7,1,0.,24.0,0.,24.0
1979-03-01 16:28:33.360 ,6,1,0.,24.0,0.,24.0
1979-03-01 16:28:57.360 ,5,1,0.,24.0,0.,24.0
1979-03-01 16:29:21.360 ,4,1,0.,24.0,0.,24.0
1979-03-01 16:29:45.360 ,3,1,0.,24.0,0.,24.0
1979-03-01 16:30:09.360 ,2,1,0.,24.0,0.,24.0
1979-03-01 16:30:33.360 ,1,1,0.,24.0,0.,24.0
1979-03-01 16:30:57.360 ,0,1,0.,24.0,0.,24.0
1979-03-01 16:31:21.360 ,0,1,0.,24.0,0.,24.0
1979-03-01 16:31:45.360 ,1,1,0.,24.0,0.,24.0
1979-03-01 16:32:09.360 ,2,1,0.,24.0,0.,24.0
1979-03-01 16:32:33.360 ,3,1,0.,24.0,0.,24.0
1979-03-01 16:32:57.360 ,4,1,0.,24.0,0.,24.0
1979-03-01 16:33:21.360 ,5,1,0.,24.0,0.,24.0
1979-03-01 16:33:45.360 ,6,1,0.,24.0,0.,24.0
1979-03-01 16:34:09.360 ,7,1,0.,24.0,0.,24.0
1979-03-01 16:34:33.360 ,7,1,0.,24.0,0.,24.0
1979-03-01 16:34:57.360 ,6,1,0.,24.0,0.,24.0
1979-03-01 16:35:21.360 ,5,1,0.,24.0,0.,24.0
1979-03-01 16:35:45.360 ,0,0,0.,24.0,0.,24.0
1979-03-01 16:36:09.360 ,3,1,0.,24.0,0.,24.0
1979-03-01 16:36:33.360 ,2,1,0.,24.0,0.,24.0
1979-03-01 16:36:57.360 ,1,1,0.,24.0,0.,24.0
1979-03-01 16:37:21.360 ,0,1,0.,24.0,0.,24.0
1979-03-01 16:37:45.360 ,0,1,0.,24.0,0.,24.0
1979-03-01 16:38:09.360 ,1,1,0.,24.0,0.,24.0
1979-03-01 16:38:33.360 ,2,1,0.,24.0,0.,24.0
1979-03-01 16:38:57.360 ,3,1,0.,24.0,0.,24.0
1979-03-01 16:39:21.360 ,4,1,0.,24.0,0.,24.0
1979-03-01 16:39:45.360 ,5,1,0.,24.0,0.,24.0
1979-03-01 16:40:09.360 ,6,1,0.,24.0,0.,24.0
1979-03-01 16:40:33.360 ,7,1,0.,24.0,0.,24.0
1979-03-01 16:40:57.360 ,7,1,0.,24.0,0.,24.0
1979-03-01 16:41:21.360 ,6,1,0.,24.0,0.,24.0
1979-03-01 16:41:45.360 ,5,1,0.,24.0,0.,24.0
1979-03-01 16:42:09.360 ,4,1,0.,24.0,0.,24.0
1979-03-01 16:42:33.360 ,3,1,0.,24.0,0.,24.0
1979-03-01 16:42:57.360 ,2,1,0.,24.0,0.,24.0
1979-03-01 16:43:21.360 ,1,1,0.,24.0,0.,24.0
1979-03-01 16:43:45.360 ,0,1,0.,24.0,0.,24.0
1979-03-01 16:44:09.360 ,0,1,0.,24.0,0.,24.0
1979-03-01 16:44:33.360 ,1,1,0.,24.0,0.,24.0
1979-03-01 16:44:57.360 ,2,1,0.,24.0,0.,24.0
1979-03-01 16:45:21.360 ,3,1,0.,24.0,0.,24.0
1979-03-01 16:45:45.360 ,4,1,0.,24.0,0.,24.0
1979-03-01 16:46:09.360 ,5,1,0.,24.0,0.,24.0
1979-03-01 16:46:33.360 ,6,1,0.,24.0,0.,24.0
1979-03-01 16:46:57.360 ,7,1,0.,24.0,0.,24.0
1979-03-01 16:47:21.360 ,7,1,0.,24.0,0.,24.0
1979-03-01 16:47:45.360 ,6,1,0.,24.0,0.,24.0
1979-03-01 16:48:09.360 ,5,1,0.,24.0,0.,24.0
1979-03-01 16:48:33.360 ,4,1,0.,24.0,0.,24.0
1979-03-01 16:48:57.360 ,3,1,0.,24.0,0.,24.0
1979-03-01 16:49:21.360 ,2,1,0.,24.0,0.,24.0
1979-03-01 16:49:45.360 ,1,1,0.,24.0,0.,24.0
1979-03-01 16:50:09.360 ,0,1,0.,24.0,0.,24.0
1979-03-01 16:50:33.360 ,0,1,0.,24.0,0.,24.0
1979-03-01 16:50:57.360 ,1,1,0.,24.0,0.,24.0
1979-03-01 16:51:21.360 ,2,1,0.,24.0,0.,24.0
1979-03-01 16:51:45.360 ,3,1,0.,24.0,0.,24.0
1979-03-01 16:52:09.360 ,4,1,0.,24.0,0.,24.0
1979-03-01 16:52:33.360 ,5,1,0.,24.0,0.,24.0
1979-03-01 16:52:57.360 ,6,1,0.,24.0,0.,24.0
1979-03-01 16:53:21.360 ,7,1,0.,24.0,0.,24.0
1979-03-01 16:53:45.360 ,7,1,0.,24.0,0.,24.0
1979-03-01 16:54:09.360 ,6,1,0.,24.0,0.,24.0
1979-03-01 16:54:33.360 ,5,1,0.,24.0,0.,24.0
1979-03-01 16:54:57.360 ,4,1,0.,24.0,0.,24.0
1979-03-01 16:55:21.360 ,3,1,0.,24.0,0.,24.0
1979-03-01 16:55:45.360 ,2,1,0.,24.0,0.,24.0
1979-03-01 16:56:09.360 ,1,1,0.,24.0,0.,24.0
1979-03-01 16:56:33.360 ,0,1,0.,24.0,0.,24.0
1979-03-01 16:56:57.360 ,0,0,,0,,0
1979-03-01 16:57:21.360 ,0,0,,0,,0
1979-03-01 16:57:50.760 ,0,0,,0,,0
1979-03-01 16:58:09.360 ,0,0,,0,,0
1979-03-01 17:02:21.960 ,0,0,0.,24.0,0.,24.0
1979-03-01 17:02:33.360 ,1,1,0.,24.0,0.,24.0
1979-03-01 17:02:57.360 ,0,0,,0,,0
1979-03-01 17:03:25.560 ,0,0,,0,,0
1979-03-01 17:03:45.360 ,0,0,,0,,0
1979-03-01 17:04:31.560 ,0,0,,0,,0
1979-03-01 17:04:33.360 ,0,0,0.,24.0,0.,24.0
1979-03-01 17:04:57.360 ,4,1,0.,24.0,0.,24.0
1979-03-01 17:05:21.360 ,0,0,,0,,0
1979-03-01 17:05:46.560 ,0,0,,0,,0
1979-03-01 17:06:09.360 ,0,0,0.,24.0,0.,24.0
1979-03-01 17:06:33.360 ,7,1,0.,24.0,0.,24.0
1979-03-01 17:06:57.360 ,6,1,0.,24.0,0.,24.0
1979-03-01 17:07:21.360 ,5,1,0.,24.0,0.,24.0
1979-03-01 17:07:45.360 ,0,0,0.,24.0,0.,24.0
1979-03-01 17:08:09.360 ,3,1,0.,24.0,0.,24.0
1979-03-01 17:08:33.360 ,0,0,,0,,0
1979-03-01 17:08:57.960 ,0,0,,0,,0
1979-03-01 17:09:21.360 ,0,0,0.,24.0,0.,24.0
1979-03-01 17:09:45.360 ,0,0,,0,,0
1979-03-01 17:10:09.360 ,1,1,0.,24.0,0.,24.0
1979-03-01 17:10:33.360 ,2,1,0.,24.0,0.,24.0
1979-03-01 17:10:57.360 ,3,1,0.,24.0,0.,24.0
1979-03-01 17:11:21.360 ,0,0,,0,,0
1979-03-01 17:11:45.360 ,0,0,0.,24.0,0.,24.0
1979-03-01 17:12:09.360 ,6,1,0.,24.0,0.,24.0
1979-03-01 17:12:33.360 ,7,1,0.,24.0,0.,24.0
1979-03-01 17:12:57.360 ,7,1,0.,24.0,0.,24.0
1979-03-01 17:13:21.360 ,6,1,0.,24.0,0.,24.0
1979-03-01 17:13:45.360 ,5,1,0.,24.0,0.,24.0
1979-03-01 17:14:09.360 ,4,1,0.,24.0,0.,24.0
1979-03-01 17:14:33.360 ,3,1,0.,24.0,0.,24.0
1979-03-01 17:14:57.360 ,2,1,0.,24.0,0.,24.0
1979-03-01 17:15:21.360 ,1,1,0.,24.0,0.,24.0
1979-03-01 17:15:45.360 ,0,1,0.,24.0,0.,24.0
1979-03-01 17:16:09.360 ,0,1,0.,24.0,0.,24.0
1979-03-01 17:16:33.360 ,1,1,0.,24.0,0.,24.0
1979-03-01 17:16:57.360 ,2,1,0.,24.0,0.,24.0
1979-03-01 17:17:21.360 ,3,1,0.,24.0,0.,24.0
1979-03-01 17:17:45.360 ,4,1,0.,24.0,0.,24.0
1979-03-01 17:18:09.360 ,5,1,0.,24.0,0.,24.0
1979-03-01 17:18:33.360 ,6,1,0.,24.0,0.,24.0
1979-03-01 17:18:57.360 ,7,1,0.,24.0,0.,24.0
1979-03-01 17:19:21.360 ,7,1,0.,24.0,0.,24.0
1979-03-01 17:19:45.360 ,6,1,0.,24.0,0.,24.0
1979-03-01 17:20:09.360 ,5,1,0.,24.0,0.,24.0
1979-03-01 17:20:33.360 ,4,1,0.,24.0,0.,24.0
1979-03-01 17:20:57.360 ,3,1,0.,24.0,0.,24.0
1979-03-01 17:21:21.360 ,2,1,0.,24.0,0.,24.0
1979-03-01 17:21:45.360 ,1,1,0.,24.0,0.,24.0
1979-03-01 17:22:09.360 ,0,1,0.,24.0,0.,24.0
1979-03-01 17:22:33.360 ,0,1,0.,24.0,0.,24.0
1979-03-01 17:22:57.360 ,1,1,0.,24.0,0.,24.0
1979-03-01 17:23:21.360 ,2,1,0.,24.0,0.,24.0
1979-03-01 17:23:45.360 ,3,1,0.,24.0,0.,24.0
1979-03-01 17:24:09.360 ,4,1,0.,24.0,0.,24.0
1979-03-01 17:24:33.360 ,5,1,0.,24.0,0.,24.0
1979-03-01 17:24:57.360 ,6,1,0.,24.0,0.,24.0
1979-03-01 17:25:21.360 ,7,1,0.,24.0,0.,24.0
1979-03-01 17:25:45.360 ,7,1,0.,24.0,0.,24.0
1979-03-01 17:26:09.360 ,6,1,0.,24.0,0.,24.0
1979-03-01 17:26:33.360 ,5,1,0.,24.0,0.,24.0
1979-03-01 17:26:57.360 ,4,1,0.,24.0,0.,24.0
1979-03-01 17:27:21.360 ,3,1,0.,24.0,0.,24.0
1979-03-01 17:27:45.360 ,2,1,0.,24.0,0.,24.0
1979-03-01 17:28:09.360 ,1,1,0.,24.0,0.,24.0
1979-03-01 17:28:33.360 ,0,1,0.,24.0,0.,24.0
1979-03-01 17:28:57.360 ,0,1,0.,24.0,0.,24.0
1979-03-01 17:29:21.360 ,1,1,0.,24.0,0.,24.0
1979-03-01 17:29:45.360 ,2,1,0.,24.0,0.,24.0
1979-03-01 17:30:09.360 ,3,1,0.,24.0,0.,24.0
1979-03-01 17:30:33.360 ,4,1,0.,24.0,0.,24.0
1979-03-01 17:30:57.360 ,5,1,0.,24.0,0.,24.0
1979-03-01 17:31:21.360 ,0,0,0.,24.0,0.,24.0
1979-03-01 17:31:45.360 ,7,1,0.,24.0,0.,24.0
1979-03-01 17:32:09.360 ,7,1,0.,24.0,0.,24.0
1979-03-01 17:32:33.360 ,6,1,0.,24.0,0.,24.0
1979-03-01 17:32:57.360 ,5,1,0.,24.0,0.,24.0
1979-03-01 17:33:21.360 ,4,1,0.,24.0,0.,24.0
1979-03-01 17:33:45.360 ,3,1,0.,24.0,0.,24.0
1979-03-01 17:34:09.360 ,2,1,0.,24.0,0.,24.0
1979-03-01 17:34:33.360 ,1,1,0.,24.0,0.,24.0
1979-03-01 17:34:57.360 ,0,1,0.,24.0,0.,24.0
1979-03-01 17:35:21.360 ,0,1,0.,24.0,0.,24.0
1979-03-01 17:35:45.360 ,1,1,0.,24.0,0.,24.0
1979-03-01 17:36:09.360 ,2,1,0.,24.0,0.,24.0
1979-03-01 17:36:33.360 ,3,1,0.,24.0,0.,24.0
1979-03-01 17:36:57.360 ,4,1,0.,24.0,0.,24.0
1979-03-01 17:37:21.360 ,5,1,0.,24.0,0.,24.0
1979-03-01 17:37:45.360 ,6,1,0.,24.0,0.,24.0
1979-03-01 17:38:09.360 ,7,1,0.,24.0,0.,24.0
1979-03-01 17:38:33.360 ,7,1,0.,24.0,0.,24.0
1979-03-01 17:38:57.360 ,6,1,0.,24.0,0.,24.0
1979-03-01 17:40:09.360 ,0,0,0.,24.0,0.,24.0
1979-03-01 17:40:33.360 ,2,1,0.,24.0,0.,24.0
1979-03-01 17:40:57.360 ,1,1,0.,24.0,0.,24.0
1979-03-01 17:41:21.360 ,0,1,0.,24.0,0.,24.0
1979-03-01 17:41:45.360 ,0,1,0.,24.0,0.,24.0
1979-03-01 17:42:09.360 ,1,1,0.,24.0,0.,24.0
1979-03-01 17:42:33.360 ,2,1,0.,24.0,0.,24.0
1979-03-01 17:42:57.360 ,3,1,0.,24.0,0.,24.0
1979-03-01 17:43:21.360 ,4,1,0.,24.0,0.,24.0
1979-03-01 17:43:45.360 ,5,1,0.,24.0,0.,24.0
1979-03-01 17:44:09.360 ,6,1,0.,24.0,0.,24.0
1979-03-01 17:44:33.360 ,7,1,0.,24.0,0.,24.0
1979-03-01 17:44:57.360 ,7,1,0.,24.0,0.,24.0
1979-03-01 17:45:21.360 ,6,1,0.,24.0,0.,24.0
1979-03-01 17:45:45.360 ,5,1,0.,24.0,0.,24.0
1979-03-01 17:46:09.360 ,4,1,0.,24.0,0.,24.0
1979-03-01 17:46:33.360 ,3,1,0.,24.0,0.,24.0
1979-03-01 17:46:57.360 ,2,1,0.,24.0,0.,24.0
1979-03-01 17:47:21.360 ,1,1,0.,24.0,0.,24.0
1979-03-01 17:47:45.360 ,0,1,0.,24.0,0.,24.0
1979-03-01 17:48:09.360 ,0,1,0.,24.0,0.,24.0
1979-03-01 17:48:33.360 ,1,1,0.,24.0,0.,24.0
1979-03-01 17:48:57.360 ,2,1,0.,24.0,0.,24.0
1979-03-01 17:49:21.360 ,3,1,0.,24.0,0.,24.0
1979-03-01 17:49:45.360 ,4,1,0.,24.0,0.,24.0
1979-03-01 17:50:09.360 ,5,1,0.,24.0,0.,24.0
1979-03-01 17:50:33.360 ,6,1,0.,24.0,0.,24.0
1979-03-01 17:50:57.360 ,7,1,0.,24.0,0.,24.0
1979-03-01 17:51:21.360 ,7,1,0.,24.0,0.,24.0
1979-03-01 17:51:45.360 ,6,1,0.,24.0,0.,24.0
1979-03-01 17:52:09.360 ,5,1,0.,24.0,0.,24.0
1979-03-01 17:52:33.360 ,4,1,0.,24.0,0.,24.0
1979-03-01 17:52:57.360 ,3,1,0.,24.0,0.,24.0
1979-03-01 17:53:21.360 ,2,1,0.,24.0,0.,24.0
1979-03-01 17:53:45.360 ,1,1,0.,24.0,0.,24.0
1979-03-01 17:54:09.360 ,0,1,0.,24.0,0.,24.0
1979-03-01 17:54:33.360 ,0,1,0.,24.0,0.,24.0
1979-03-01 17:54:57.360 ,1,1,0.,24.0,0.,24.0
1979-03-01 17:55:21.360 ,2,1,0.,24.0,0.,24.0
1979-03-01 17:55:45.360 ,3,1,0.,24.0,0.,24.0
1979-03-01 17:56:09.360 ,4,1,0.,24.0,0.,24.0
1979-03-01 17:56:33.360 ,5,1,0.,24.0,0.,24.0
1979-03-01 17:56:57.360 ,6,1,0.,24.0,0.,24.0
1979-03-01 17:57:21.360 ,7,1,0.,24.0,0.,24.0
1979-03-01 17:57:45.360 ,7,1,0.,24.0,0.,24.0
1979-03-01 17:58:09.360 ,6,1,0.,24.0,0.,24.0
1979-03-01 17:58:33.360 ,5,1,0.,24.0,0.,24.0
1979-03-01 17:58:57.360 ,4,1,0.,24.0,0.,24.0
1979-03-01 17:59:21.360 ,3,1,0.,24.0,0.,24.0
1979-03-01 17:59:45.360 ,2,1,0.,24.0,0.,24.0
1979-03-01 18:00:09.360 ,1,1,0.,24.0,0.,24.0
